Skip Page Navigation
NASA JPL Caltech
NASA Logo - Jet Propulsion Laboratory + View the NASA Portal
+ Center for Near-Earth Object Studies
JPL Home Earth Solar System Stars & Galaxies Technology
JPL Solar System Dynamics
BODIES ORBITS EPHEMERIDES TOOLS PHYSICAL DATA DISCOVERY FAQ SITE MAP
IMPORTANT: The SSD Announcement email list is now available. Major changes are coming in the near future, including possible hostname and/or URL changes. To be notified of such changes, subscribe to this email list.

Please visit this page for more details.


JPL Small-Body Database Browser
Search: [ help ]  
214719 (2006 TY9)
Classification: Outer Main-belt Asteroid          SPK-ID: 2214719
Ephemeris | Orbit Diagram | Orbital Elements | Mission Design | Physical Parameters | Discovery Circumstances | Close-Approach Data ]

[ show orbit diagram ]
Orbital Elements at Epoch 2458600.5 (2019-Apr-27.0) TDB
Reference: JPL 14 (heliocentric ecliptic J2000)
 Element Value Uncertainty (1-sigma)   Units 
e .03783534402858729 7.7468e-08  
a 3.20277319362546 5.3921e-08 au
q 3.081595167999104 2.4875e-07 au
i 16.28476194730509 1.0099e-05 deg
node 28.96458690886614 2.1794e-05 deg
peri 210.6197861715836 0.00012093 deg
M 217.3041580424756 0.00011469 deg
tp 2459430.344121364740
(2021-Aug-03.84412136)
0.00066022 TDB
period 2093.571050095715
5.73
5.287e-05
1.448e-07
d
yr
n .1719549952620626 4.3425e-09 deg/d
Q 3.323951219251816 5.5961e-08 au
  Orbit Determination Parameters
   # obs. used (total)      290  
   data-arc span      6995 days (19.15 yr)  
   first obs. used      2000-10-02  
   last obs. used      2019-11-27  
   planetary ephem.      DE431  
   SB-pert. ephem.      SB431-N16  
   condition code      0  
   norm. resid. RMS      .64187  
   source      ORB  
   producer      Otto Matic  
   solution date      2019-Dec-04 16:58:48  

Additional Information
 Earth MOID = 2.0808 au 
 Jupiter MOID = 1.65968 au 
 T_jup = 3.130 
[ show covariance matrix ]

Ephemeris | Orbit Diagram | Orbital Elements | Mission Design | Physical Parameters | Discovery Circumstances | Close-Approach Data ]

Physical Parameter Table
Parameter Symbol Value Units Sigma Reference Notes
absolute magnitude H 15.0   n/a MPO338569  

214719 (2006 TY9)          Discovered 2006-Oct-13 by Dax at Dax
Reference: 20090509/Numbers.arcLast Updated: 2009-05-11

[ show close-approach data ]
Alternate Designations
 2006 TY9 = 2000 WC195 
Ephemeris | Orbit Diagram | Orbital Elements | Mission Design | Physical Parameters | Discovery Circumstances | Close-Approach Data ]
ABOUT SSD CREDITS/AWARDS PRIVACY/COPYRIGHT GLOSSARY LINKS
FirstGov 2019-Dec-10 06:29 UT
(server date/time)  
NASA Home Page
Site Manager:   Ryan S. Park
Webmaster  Alan B. Chamberlin